Home > Weather > Caracas > Past weeks

Flag for Venezuela Past Weather in Caracas, Venezuela — Yesterday and Last 2 Weeks

Now
77 °F

Scattered clouds.


Feels Like: 79 °F
Forecast: 67 / 79 °F
Wind: No wind

Location: Caracas / Maiquetia Aerop. Intl. Simon Bolivar

Current Time: Jul 29, 2016 at 8:06:15 AM

Latest Report: Jul 29, 2016 at 7:00 AM


Visibility: N/A

Pressure: 29.86 "Hg (27.01 "Hg at 875m altitude)

Humidity: 57%

Dew Point: 61 °F

Location of CaracasLocation

Past Weather in Caracas — Graph

°F

Caracas Temperature Yesterday

Maximum temperature yesterday: 88 °F (at 12:00 PM)
Minimum temperature yesterday: 79 °F (at 2:00 AM)
Average temperature yesterday: 83 °F

High & Low Weather Summary for the Past Weeks

 TemperatureHumidityPressure
High91 °F (Jul 17, 2:00 PM)94% (Jul 16, 11:00 PM)29.95 "Hg (Jul 16, 11:00 PM)
Low75 °F (Jul 14, 8:00 AM)38% (Jul 19, 2:00 PM)29.80 "Hg (Jul 15, 4:00 PM)
Average82 °F59%29.87 "Hg
* Reported Jul 14 7:00 AM — Jul 29 7:00 AM, Caracas, Weather by CustomWeather, © 2016

Note: Actual official high and low records may vary slightly from our data, if they occured in-between our weather recording intervals... More about our weather records

Advertising

Caracas Weather History for the Previous 24 Hours

Scroll right to see more
 ConditionsComfort  
Time TempWeatherWind HumidityBarometerVisibility
7:00 AM
Fri, Jul 29
77 °FScattered clouds.No wind57%29.86 "HgN/A
6:00 AM77 °FScattered clouds.No wind57%29.86 "HgN/A
5:00 AM79 °FPassing clouds.No wind58%29.83 "HgN/A
4:00 AM79 °FPassing clouds.No wind58%29.83 "HgN/A
3:00 AM79 °FPassing clouds.No wind61%29.86 "HgN/A
2:00 AM79 °FPassing clouds.No wind61%29.86 "HgN/A
1:00 AM81 °FPassing clouds.No wind58%29.89 "HgN/A
12:00 AM81 °FPassing clouds.No wind58%29.89 "HgN/A
11:00 PM
Thu, Jul 28
81 °FPassing clouds.No wind58%29.89 "HgN/A
10:00 PM81 °FPassing clouds.No wind62%29.86 "HgN/A
9:00 PM81 °FPassing clouds.2 mph62%29.86 "HgN/A
8:00 PM81 °FPassing clouds.2 mph62%29.86 "HgN/A
7:00 PM82 °FPassing clouds.3 mph58%29.83 "HgN/A
6:00 PM84 °FPartly sunny.3 mph58%29.80 "HgN/A
5:00 PM86 °FPartly sunny.6 mph59%29.80 "HgN/A
4:00 PM88 °FPartly sunny.5 mph55%29.83 "HgN/A
3:00 PM88 °FPartly sunny.3 mph59%29.83 "HgN/A
2:00 PM88 °FPartly sunny.3 mph55%29.86 "HgN/A
1:00 PM88 °FScattered clouds.3 mph59%29.89 "HgN/A
12:00 PM88 °FPassing clouds.2 mph59%29.89 "HgN/A
11:00 AM86 °FPassing clouds.5 mph62%29.89 "HgN/A
10:00 AM86 °FPartly sunny.7 mph62%29.86 "HgN/A
9:00 AM82 °FBroken clouds.7 mph58%29.89 "HgN/A
8:00 AM81 °FPassing clouds.No wind54%29.86 "HgN/A
Weather by CustomWeather, © 2016

See weather overviewHow to use our weather pages